Location: Fluertsh�userhof
(48.7537°N, 10.3850°E)
Time: 08:13:06
(UTC+00:00)

Cosmos 1674 - Pass Details

Date: 18 September 2020
Orbit: 494 x 517 km, 82.5° (Epoch: 24 October)

Event Time Altitude Azimuth Distance (km) Brightness Sun altitude
Rises 19:02:20 0° 354° (N) 2,654 6.7 -16.6°
Reaches altitude 10° 19:04:32 10° 359° (N) 1,762 5.7 -16.9°
Maximum altitude 19:08:19 52° 77° (ENE) 654 2.8 -17.5°
Enters shadow 19:09:10 42° 121° (ESE) 750 3.0 -17.6°
